Location: *
(45.9500°N, 9.0833°E)
Time: 07:46:41
(UTC+00:00)

Transit 4A - All Passes

Search period start: 15 June 2021 00:00
Search period end: 25 June 2021 00:00
Orbit: 872 x 973 km, 66.8° (Epoch: 14 June)

Date Brightness Start Highest point End Pass type
(mag) Time Alt. Az. Time Alt. Az. Time Alt. Az.
15 Jun - 08:58:46 10° SSE 09:03:52 29° ESE 09:08:51 10° NE daylight
15 Jun - 10:43:58 10° SW 10:49:54 56° NW 10:55:43 10° NNE daylight
15 Jun - 12:33:56 10° WNW 12:37:35 16° NNW 12:41:11 10° N daylight
15 Jun - 16:12:34 10° N 16:15:56 15° NNE 16:19:17 10° ENE daylight
15 Jun - 17:58:01 10° NNW 18:03:42 52° NE 18:09:23 10° SE daylight
15 Jun - 19:44:48 10° NW 19:49:46 30° WSW 19:54:46 10° S visible
16 Jun - 09:07:21 10° S 09:12:59 42° ESE 09:18:30 10° NE daylight
16 Jun - 10:53:42 10° WSW 10:59:21 41° NW 11:04:55 10° NNE daylight
16 Jun - 12:44:36 10° NW 12:47:24 13° NNW 12:50:10 10° N daylight
16 Jun - 16:21:37 10° NNW 16:25:42 19° NNE 16:29:46 10° ENE daylight
16 Jun - 18:07:15 10° NNW 18:13:06 72° NE 18:18:56 10° SE daylight
16 Jun - 19:54:41 10° WNW 19:58:49 20° WSW 20:02:58 10° SSW visible
17 Jun - 09:16:13 10° SSW 09:22:10 60° ESE 09:28:00 10° NE daylight
17 Jun - 11:03:38 10° WSW 11:08:53 31° NW 11:14:04 10° NNE daylight
17 Jun - 12:55:31 10° NW 12:57:17 11° NNW 12:59:02 10° N daylight
17 Jun - 16:30:42 10° NNW 16:35:23 24° NE 16:40:03 10° E daylight
17 Jun - 18:16:33 10° NW 18:22:24 81° WSW 18:28:15 10° SSE daylight
17 Jun - 20:05:11 10° WNW 20:07:47 13° WSW 20:10:25 10° SW visible
18 Jun - 07:42:42 10° SE 07:45:55 15° ESE 07:49:07 10° ENE daylight
18 Jun - 09:25:22 10° SSW 09:31:25 86° ESE 09:37:22 10° NE daylight
18 Jun - 11:13:45 10° W 11:18:30 24° NW 11:23:11 10° NNE daylight
18 Jun - 14:54:49 10° N 14:56:37 11° NNE 14:58:25 10° NE daylight
18 Jun - 16:39:49 10° NNW 16:44:59 31° NE 16:50:08 10° ESE daylight
18 Jun - 18:25:57 10° NW 18:31:39 56° WSW 18:37:20 10° SSE daylight
19 Jun - 07:50:24 10° SSE 07:54:56 22° ESE 07:59:24 10° ENE daylight
19 Jun - 09:34:44 10° SW 09:40:45 69° NW 09:46:39 10° NNE daylight
19 Jun - 11:24:05 10° WNW 11:28:11 19° NNW 11:32:15 10° NNE daylight
19 Jun - 15:03:42 10° N 15:06:30 13° NNE 15:09:18 10° NE daylight
19 Jun - 16:48:59 10° NNW 16:54:31 42° NE 17:00:02 10° ESE daylight
19 Jun - 18:35:28 10° NW 18:40:48 38° WSW 18:46:09 10° S daylight
20 Jun - 07:58:42 10° S 08:04:00 33° ESE 08:09:12 10° NE daylight
20 Jun - 09:44:19 10° SW 09:50:09 50° NW 09:55:53 10° NNE daylight
20 Jun - 11:34:37 10° WNW 11:37:58 15° NNW 11:41:17 10° N daylight
20 Jun - 15:12:41 10° N 15:16:18 16° NNE 15:19:56 10° ENE daylight
20 Jun - 16:58:11 10° NNW 17:03:57 58° NE 17:09:43 10° SE daylight
20 Jun - 18:45:10 10° NW 18:49:54 26° WSW 18:54:39 10° SSW daylight
21 Jun - 08:07:23 10° S 08:13:08 47° ESE 08:18:47 10° NE daylight
21 Jun - 09:54:07 10° WSW 09:59:38 37° NW 10:05:04 10° NNE daylight
21 Jun - 11:45:22 10° NW 11:47:48 12° NNW 11:50:13 10° N daylight
21 Jun - 15:21:44 10° NNW 15:26:03 21° NE 15:30:21 10° E daylight
21 Jun - 17:07:27 10° NNW 17:13:18 81° ENE 17:19:10 10° SE daylight
21 Jun - 18:55:12 10° WNW 18:58:55 18° WSW 19:02:39 10° SW daylight
22 Jun - 06:35:35 10° ESE 06:37:04 11° E 06:38:33 10° E daylight
22 Jun - 08:16:21 10° SSW 08:22:21 69° ESE 08:28:13 10° NE daylight
22 Jun - 10:04:07 10° W 10:09:11 28° NW 10:14:12 10° NNE daylight
22 Jun - 11:56:27 10° NNW 11:57:43 11° NNW 11:58:58 10° N daylight
22 Jun - 13:46:15 10° N 13:47:07 10° NNE 13:48:00 10° NNE daylight
22 Jun - 15:30:50 10° NNW 15:35:42 26° NE 15:40:34 10° E daylight
22 Jun - 17:16:46 10° NW 17:22:36 72° WSW 17:28:25 10° SSE daylight
22 Jun - 19:06:17 10° W 19:07:52 11° W 19:09:28 10° WSW daylight
23 Jun - 06:42:15 10° SE 06:46:01 17° ESE 06:49:44 10° ENE daylight
23 Jun - 08:25:35 10° SSW 08:31:38 85° WNW 08:37:34 10° NNE daylight
23 Jun - 10:14:19 10° W 10:18:50 22° NW 10:23:18 10° NNE daylight
23 Jun - 13:54:51 10° N 13:57:02 12° NNE 13:59:13 10° NE daylight
23 Jun - 15:39:57 10° NNW 15:45:16 35° NE 15:50:35 10° ESE daylight
23 Jun - 17:26:12 10° NW 17:31:48 49° WSW 17:37:24 10° S daylight
24 Jun - 06:50:13 10° SSE 06:55:02 26° ESE 06:59:49 10° NE daylight
24 Jun - 08:35:02 10° SW 08:40:59 61° NW 08:46:50 10° NNE daylight
24 Jun - 10:24:44 10° WNW 10:28:33 17° NNW 10:32:21 10° N daylight
24 Jun - 14:03:46 10° N 14:06:54 14° NNE 14:10:00 10° ENE daylight
24 Jun - 15:49:09 10° NNW 15:54:46 47° NE 16:00:23 10° ESE daylight
24 Jun - 17:35:47 10° NW 17:40:56 33° WSW 17:46:07 10° S daylight
